QPF
0.00 0.00 0.00 0.00 0.00 0.00 0.00 0.00 0.00 0.00 0.00 0.00 0.00 0.00 0.01 0.01 0.02 0.02 0.02 0.02 0.02 0.01 0.01 0.01 0.01 0.01 0.01 0.01 0.02 0.03 0.04 0.04 0.04 0.04 0.03 0.02 0.02 0.03 0.03 0.04 0.05 0.04 0.03 0.02
0.00 0.00 0.00 0.00 0.00 0.00 0.00 0.00 0.00 0.00 0.00 0.00 0.00 0.00 0.00 0.01 0.01 0.02 0.02 0.02 0.03 0.02 0.01 0.01 0.01 0.01 0.01 0.02 0.04 0.04 0.04 0.03 0.03 0.03 0.02 0.02 0.04 0.05 0.05 0.05 0.05 0.04 0.03 0.03
0.00 0.00 0.00 0.00 0.00 0.00 0.00 0.00 0.00 0.00 0.00 0.00 0.00 0.00 0.00 0.01 0.01 0.01 0.01 0.01 0.01 0.01 0.01 0.02 0.02 0.02 0.02 0.03 0.04 0.04 0.02 0.02 0.03 0.03 0.03 0.03 0.04 0.06 0.06 0.06 0.06 0.06 0.05 0.04
0.00 0.00 0.00 0.00 0.00 0.00 0.00 0.00 0.00 0.00 0.00 0.00 0.00 0.00 0.00 0.01 0.01 0.01 0.01 0.01 0.01 0.01 0.01 0.02 0.02 0.02 0.02 0.02 0.03 0.02 0.02 0.02 0.03 0.03 0.03 0.04 0.04 0.04 0.05 0.06 0.06 0.08 0.07 0.05
0.00 0.00 0.00 0.00 0.00 0.00 0.00 0.00 0.00 0.00 0.00 0.00 0.00 0.00 0.00 0.00 0.01 0.01 0.01 0.01 0.02 0.02 0.01 0.01 0.01 0.01 0.01 0.02 0.02 0.02 0.02 0.02 0.02 0.02 0.03 0.04 0.04 0.05 0.06 0.05 0.05 0.06 0.07 0.04
0.00 0.00 0.00 0.00 0.00 0.00 0.00 0.00 0.00 0.00 0.00 0.00 0.00 0.00 0.00 0.00 0.01 0.01 0.01 0.02 0.02 0.02 0.02 0.01 0.01 0.01 0.02 0.02 0.02 0.02 0.03 0.03 0.02 0.02 0.02 0.03 0.04 0.04 0.04 0.03 0.03 0.04 0.05 0.03
0.00 0.00 0.00 0.00 0.00 0.00 0.00 0.00 0.00 0.00 0.00 0.00 0.00 0.00 0.00 0.00 0.01 0.01 0.01 0.02 0.02 0.02 0.03 0.03 0.04 0.03 0.03 0.03 0.04 0.06 0.06 0.04 0.02 0.02 0.02 0.03 0.03 0.03 0.03 0.02 0.02 0.03 0.04 0.03
0.00 0.00 0.00 0.00 0.00 0.00 0.00 0.00 0.00 0.00 0.00 0.00 0.00 0.00 0.00 0.00 0.01 0.01 0.02 0.01 0.01 0.02 0.03 0.04 0.03 0.03 0.04 0.06 0.07 0.08 0.08 0.04 0.01 0.01 0.01 0.02 0.02 0.02 0.02 0.02 0.02 0.02 0.04 0.03
0.00 0.00 0.00 0.00 0.00 0.00 0.00 0.00 0.00 0.00 0.00 0.00 0.00 0.00 0.00 0.00 0.01 0.01 0.01 0.01 0.01 0.02 0.03 0.04 0.04 0.04 0.05 0.05 0.05 0.05 0.05 0.03 0.01 0.01 0.01 0.01 0.01 0.02 0.02 0.02 0.03 0.02 0.04 0.04
0.00 0.00 0.00 0.00 0.00 0.00 0.00 0.00 0.00 0.00 0.00 0.00 0.00 0.01 0.01 0.01 0.01 0.01 0.01 0.01 0.01 0.01 0.01 0.03 0.04 0.03 0.03 0.04 0.04 0.04 0.04 0.04 0.03 0.02 0.01 0.01 0.01 0.02 0.03 0.03 0.03 0.03 0.04 0.04
0.00 0.00 0.00 0.00 0.00 0.00 0.00 0.00 0.01 0.01 0.01 0.00 0.00 0.00 0.01 0.01 0.01 0.01 0.01 0.01 0.01 0.01 0.01 0.03 0.04 0.03 0.03 0.03 0.03 0.04 0.05 0.04 0.04 0.02 0.02 0.02 0.02 0.03 0.03 0.03 0.04 0.04 0.04 0.04
0.00 0.00 0.00 0.00 0.00 0.00 0.00 0.01 0.01 0.01 0.01 0.01 0.00 0.00 0.01 0.01 0.01 0.01 0.01 0.01 0.01 0.01 0.02 0.02 0.03 0.03 0.02 0.02 0.02 0.02 0.05 0.05 0.04 0.04 0.03 0.03 0.05 0.07 0.07 0.06 0.06 0.06 0.06 0.05
0.00 0.00 0.00 0.00 0.00 0.00 0.01 0.01 0.01 0.01 0.01 0.01 0.01 0.01 0.01 0.01 0.01 0.00 0.00 0.00 0.01 0.01 0.01 0.02 0.02 0.02 0.02 0.02 0.02 0.03 0.07 0.06 0.06 0.05 0.05 0.04 0.06 0.08 0.10 0.09 0.07 0.07 0.08 0.07
0.00 0.00 0.00 0.00 0.00 0.00 0.00 0.00 0.01 0.01 0.01 0.01 0.01 0.01 0.00 0.01 0.00 0.00 0.00 0.00 0.01 0.02 0.03 0.05 0.04 0.02 0.02 0.04 0.05 0.06 0.09 0.08 0.06 0.07 0.06 0.04 0.04 0.05 0.06 0.07 0.08 0.08 0.08 0.08
0.00 0.00 0.00 0.00 0.00 0.00 0.00 0.00 0.00 0.00 0.00 0.00 0.00 0.00 0.00 0.00 0.00 0.00 0.00 0.01 0.01 0.03 0.03 0.04 0.04 0.03 0.03 0.05 0.06 0.06 0.08 0.09 0.06 0.06 0.06 0.06 0.06 0.06 0.06 0.06 0.07 0.08 0.08 0.09
0.00 0.00 0.00 0.00 0.00 0.00 0.00 0.00 0.00 0.01 0.00 0.00 0.00 0.00 0.00 0.01 0.01 0.00 0.01 0.01 0.02 0.02 0.03 0.04 0.04 0.04 0.06 0.07 0.07 0.07 0.07 0.08 0.05 0.04 0.04 0.06 0.07 0.06 0.05 0.06 0.08 0.08 0.10 0.12
0.00 0.00 0.00 0.00 0.00 0.00 0.00 0.01 0.00 0.01 0.01 0.01 0.01 0.00 0.01 0.01 0.01 0.01 0.01 0.01 0.01 0.02 0.02 0.03 0.04 0.05 0.06 0.07 0.06 0.06 0.06 0.07 0.05 0.03 0.03 0.03 0.05 0.04 0.03 0.04 0.06 0.08 0.08 0.08
0.00 0.00 0.00 0.00 0.00 0.00 0.01 0.00 0.01 0.01 0.01 0.01 0.01 0.01 0.01 0.01 0.01 0.01 0.01 0.01 0.01 0.02 0.02 0.02 0.03 0.03 0.04 0.04 0.04 0.05 0.06 0.05 0.04 0.03 0.02 0.02 0.03 0.05 0.03 0.02 0.04 0.06 0.06 0.06
0.01 0.01 0.01 0.01 0.00 0.00 0.00 0.00 0.00 0.01 0.01 0.01 0.00 0.00 0.01 0.01 0.01 0.01 0.01 0.02 0.02 0.02 0.02 0.03 0.02 0.02 0.03 0.03 0.03 0.04 0.04 0.04 0.03 0.02 0.02 0.02 0.04 0.08 0.06 0.03 0.05 0.09 0.09 0.07
0.00 0.01 0.01 0.01 0.01 0.00 0.00 0.00 0.00 0.01 0.01 0.01 0.00 0.01 0.02 0.01 0.01 0.01 0.01 0.01 0.02 0.02 0.02 0.03 0.03 0.03 0.03 0.03 0.03 0.04 0.03 0.03 0.02 0.01 0.01 0.01 0.01 0.04 0.08 0.06 0.06 0.08 0.09 0.08
0.01 0.01 0.01 0.01 0.01 0.01 0.00 0.01 0.02 0.01 0.01 0.01 0.01 0.02 0.02 0.03 0.02 0.02 0.02 0.02 0.03 0.03 0.02 0.03 0.04 0.04 0.03 0.02 0.02 0.04 0.04 0.03 0.03 0.02 0.01 0.01 0.01 0.02 0.04 0.07 0.06 0.06 0.07 0.09
0.01 0.01 0.01 0.02 0.02 0.01 0.00 0.01 0.02 0.03 0.02 0.02 0.02 0.02 0.02 0.02 0.02 0.02 0.02 0.02 0.04 0.04 0.04 0.04 0.05 0.06 0.04 0.03 0.03 0.04 0.03 0.04 0.04 0.02 0.01 0.01 0.02 0.02 0.03 0.05 0.05 0.04 0.05 0.06
0.01 0.01 0.01 0.02 0.02 0.02 0.02 0.02 0.02 0.03 0.04 0.04 0.04 0.04 0.03 0.02 0.01 0.02 0.02 0.02 0.03 0.04 0.05 0.04 0.04 0.04 0.03 0.03 0.03 0.03 0.03 0.04 0.04 0.03 0.01 0.01 0.02 0.02 0.03 0.03 0.04 0.04 0.04 0.04
0.01 0.01 0.01 0.01 0.02 0.02 0.03 0.06 0.03 0.03 0.03 0.03 0.04 0.05 0.04 0.03 0.02 0.02 0.02 0.04 0.06 0.05 0.05 0.04 0.03 0.02 0.02 0.03 0.03 0.05 0.05 0.04 0.04 0.03 0.02 0.01 0.02 0.03 0.03 0.03 0.04 0.04 0.04 0.04
0.01 0.01 0.01 0.01 0.01 0.02 0.07 0.10 0.07 0.05 0.03 0.02 0.03 0.03 0.04 0.04 0.04 0.03 0.03 0.03 0.05 0.05 0.04 0.04 0.03 0.03 0.02 0.02 0.03 0.05 0.05 0.04 0.04 0.03 0.03 0.03 0.03 0.02 0.02 0.02 0.03 0.04 0.04 0.04
0.01 0.02 0.02 0.02 0.01 0.02 0.07 0.11 0.06 0.04 0.03 0.02 0.02 0.02 0.02 0.02 0.03 0.03 0.03 0.03 0.04 0.05 0.03 0.03 0.03 0.03 0.03 0.03 0.03 0.03 0.04 0.04 0.03 0.03 0.03 0.04 0.04 0.03 0.02 0.02 0.03 0.04 0.05 0.05
MSLP
1009.32 1010.10 1010.74 1011.27 1011.75 1012.30 1012.99 1013.89 1015.00 1016.28 1017.64 1018.96 1020.11 1021.00 1021.57 1021.79 1021.72 1021.42 1021.00 1020.52 1020.06 1019.66 1019.30 1018.95 1018.58 1018.13 1017.57 1016.88 1016.10 1015.24 1014.35 1013.50 1012.71 1012.03 1011.46 1011.02 1010.68 1010.44 1010.28 1010.19 1010.16 1010.20 1010.30 1010.46
1009.84 1010.51 1011.04 1011.45 1011.85 1012.33 1013.00 1013.89 1015.03 1016.35 1017.74 1019.10 1020.28 1021.19 1021.78 1022.02 1021.96 1021.70 1021.31 1020.89 1020.49 1020.14 1019.83 1019.53 1019.19 1018.75 1018.20 1017.51 1016.71 1015.84 1014.94 1014.06 1013.24 1012.52 1011.91 1011.40 1010.99 1010.67 1010.43 1010.28 1010.20 1010.22 1010.33 1010.52
1010.34 1010.88 1011.27 1011.56 1011.85 1012.26 1012.86 1013.73 1014.85 1016.18 1017.58 1018.95 1020.16 1021.10 1021.72 1022.01 1022.02 1021.82 1021.51 1021.16 1020.83 1020.53 1020.27 1020.00 1019.67 1019.24 1018.68 1018.00 1017.21 1016.35 1015.46 1014.59 1013.78 1013.05 1012.40 1011.83 1011.34 1010.93 1010.60 1010.36 1010.23 1010.20 1010.29 1010.49
1010.85 1011.25 1011.49 1011.65 1011.84 1012.15 1012.70 1013.52 1014.61 1015.91 1017.30 1018.67 1019.88 1020.85 1021.52 1021.87 1021.96 1021.86 1021.63 1021.37 1021.10 1020.86 1020.62 1020.36 1020.03 1019.60 1019.05 1018.38 1017.61 1016.79 1015.94 1015.11 1014.32 1013.59 1012.92 1012.30 1011.74 1011.24 1010.80 1010.46 1010.24 1010.15 1010.21 1010.39
1011.41 1011.66 1011.76 1011.81 1011.90 1012.14 1012.63 1013.40 1014.45 1015.70 1017.05 1018.39 1019.60 1020.58 1021.29 1021.71 1021.88 1021.87 1021.74 1021.55 1021.35 1021.15 1020.93 1020.67 1020.34 1019.90 1019.35 1018.70 1017.97 1017.19 1016.40 1015.62 1014.87 1014.16 1013.47 1012.81 1012.17 1011.56 1011.02 1010.57 1010.25 1010.08 1010.08 1010.24
1012.03 1012.14 1012.13 1012.09 1012.11 1012.31 1012.75 1013.48 1014.47 1015.67 1016.97 1018.26 1019.44 1020.41 1021.14 1021.60 1021.85 1021.91 1021.87 1021.75 1021.60 1021.43 1021.23 1020.96 1020.62 1020.18 1019.64 1019.01 1018.32 1017.59 1016.86 1016.14 1015.42 1014.72 1014.02 1013.31 1012.60 1011.90 1011.25 1010.69 1010.26 1010.00 1009.93 1010.05
1012.68 1012.69 1012.61 1012.52 1012.52 1012.70 1013.12 1013.81 1014.76 1015.89 1017.11 1018.33 1019.45 1020.39 1021.11 1021.60 1021.89 1022.02 1022.04 1021.98 1021.87 1021.73 1021.53 1021.26 1020.91 1020.47 1019.94 1019.33 1018.68 1018.00 1017.32 1016.64 1015.96 1015.27 1014.55 1013.80 1013.02 1012.23 1011.47 1010.80 1010.26 1009.91 1009.76 1009.83
1013.35 1013.30 1013.19 1013.11 1013.13 1013.32 1013.74 1014.41 1015.30 1016.35 1017.48 1018.60 1019.64 1020.51 1021.20 1021.69 1022.00 1022.17 1022.23 1022.22 1022.14 1022.02 1021.82 1021.55 1021.20 1020.75 1020.23 1019.64 1019.02 1018.38 1017.74 1017.10 1016.44 1015.76 1015.02 1014.23 1013.39 1012.52 1011.67 1010.90 1010.26 1009.81 1009.58 1009.58
1013.97 1013.93 1013.85 1013.81 1013.88 1014.11 1014.55 1015.20 1016.03 1016.99 1018.01 1019.02 1019.94 1020.73 1021.36 1021.82 1022.12 1022.31 1022.40 1022.42 1022.37 1022.26 1022.07 1021.80 1021.44 1021.00 1020.48 1019.91 1019.31 1018.70 1018.08 1017.47 1016.83 1016.14 1015.40 1014.58 1013.70 1012.77 1011.85 1010.99 1010.25 1009.71 1009.39 1009.31
1014.52 1014.53 1014.53 1014.58 1014.72 1015.01 1015.46 1016.08 1016.85 1017.70 1018.60 1019.47 1020.27 1020.95 1021.50 1021.92 1022.21 1022.40 1022.51 1022.55 1022.51 1022.41 1022.23 1021.95 1021.59 1021.15 1020.64 1020.08 1019.49 1018.90 1018.31 1017.71 1017.08 1016.41 1015.66 1014.83 1013.93 1012.97 1011.99 1011.07 1010.26 1009.62 1009.21 1009.03
1014.97 1015.08 1015.19 1015.35 1015.58 1015.92 1016.38 1016.96 1017.64 1018.38 1019.13 1019.86 1020.52 1021.09 1021.56 1021.92 1022.19 1022.38 1022.50 1022.55 1022.53 1022.43 1022.25 1021.98 1021.61 1021.16 1020.65 1020.10 1019.53 1018.95 1018.38 1017.79 1017.18 1016.53 1015.80 1014.98 1014.08 1013.12 1012.12 1011.16 1010.29 1009.57 1009.05 1008.77
1015.32 1015.56 1015.80 1016.07 1016.38 1016.76 1017.21 1017.73 1018.31 1018.92 1019.52 1020.10 1020.63 1021.10 1021.49 1021.81 1022.07 1022.25 1022.38 1022.44 1022.42 1022.33 1022.14 1021.86 1021.49 1021.04 1020.53 1019.98 1019.42 1018.86 1018.30 1017.73 1017.15 1016.52 1015.82 1015.04 1014.17 1013.22 1012.24 1011.26 1010.34 1009.55 1008.94 1008.54
1015.62 1015.99 1016.35 1016.72 1017.09 1017.49 1017.90 1018.35 1018.81 1019.28 1019.74 1020.18 1020.60 1020.98 1021.31 1021.60 1021.84 1022.03 1022.17 1022.23 1022.22 1022.12 1021.93 1021.63 1021.25 1020.80 1020.28 1019.74 1019.19 1018.64 1018.10 1017.56 1017.01 1016.41 1015.76 1015.02 1014.20 1013.29 1012.33 1011.35 1010.41 1009.57 1008.86 1008.34
1015.90 1016.39 1016.86 1017.29 1017.69 1018.07 1018.44 1018.78 1019.12 1019.46 1019.79 1020.12 1020.44 1020.75 1021.05 1021.33 1021.58 1021.78 1021.92 1021.99 1021.98 1021.87 1021.66 1021.35 1020.95 1020.49 1019.98 1019.44 1018.90 1018.36 1017.84 1017.33 1016.80 1016.24 1015.63 1014.94 1014.17 1013.31 1012.39 1011.43 1010.48 1009.58 1008.80 1008.17
1016.23 1016.80 1017.33 1017.79 1018.19 1018.53 1018.82 1019.06 1019.28 1019.50 1019.72 1019.96 1020.22 1020.50 1020.79 1021.07 1021.33 1021.55 1021.70 1021.77 1021.75 1021.62 1021.39 1021.06 1020.65 1020.18 1019.66 1019.13 1018.60 1018.08 1017.57 1017.07 1016.57 1016.03 1015.45 1014.80 1014.07 1013.26 1012.37 1011.44 1010.49 1009.57 1008.73 1008.01
1016.62 1017.23 1017.78 1018.23 1018.60 1018.87 1019.07 1019.21 1019.33 1019.45 1019.59 1019.78 1020.00 1020.27 1020.57 1020.87 1021.15 1021.39 1021.55 1021.61 1021.57 1021.42 1021.17 1020.81 1020.38 1019.90 1019.39 1018.86 1018.34 1017.82 1017.32 1016.83 1016.32 1015.79 1015.22 1014.59 1013.89 1013.11 1012.25 1011.34 1010.41 1009.48 1008.60 1007.82
1017.07 1017.68 1018.20 1018.61 1018.91 1019.11 1019.22 1019.27 1019.31 1019.36 1019.45 1019.61 1019.83 1020.11 1020.43 1020.76 1021.06 1021.31 1021.46 1021.52 1021.45 1021.27 1020.99 1020.61 1020.16 1019.67 1019.16 1018.64 1018.12 1017.60 1017.10 1016.59 1016.07 1015.52 1014.93 1014.29 1013.59 1012.83 1011.99 1011.11 1010.20 1009.28 1008.39 1007.58
1017.54 1018.10 1018.56 1018.91 1019.13 1019.25 1019.28 1019.27 1019.25 1019.26 1019.34 1019.49 1019.72 1020.03 1020.37 1020.72 1021.04 1021.28 1021.42 1021.45 1021.35 1021.14 1020.82 1020.42 1019.97 1019.47 1018.96 1018.44 1017.92 1017.40 1016.88 1016.34 1015.78 1015.19 1014.56 1013.89 1013.17 1012.40 1011.58 1010.72 1009.84 1008.95 1008.09 1007.28
1017.96 1018.45 1018.83 1019.10 1019.25 1019.29 1019.26 1019.20 1019.16 1019.16 1019.24 1019.41 1019.67 1020.00 1020.36 1020.72 1021.03 1021.25 1021.37 1021.36 1021.23 1020.98 1020.63 1020.21 1019.75 1019.25 1018.75 1018.24 1017.71 1017.18 1016.63 1016.04 1015.43 1014.78 1014.10 1013.37 1012.62 1011.84 1011.03 1010.20 1009.36 1008.52 1007.71 1006.93
1018.24 1018.65 1018.96 1019.14 1019.22 1019.21 1019.15 1019.08 1019.03 1019.04 1019.15 1019.34 1019.63 1019.97 1020.34 1020.69 1020.98 1021.18 1021.25 1021.20 1021.02 1020.74 1020.37 1019.94 1019.47 1018.98 1018.49 1017.98 1017.45 1016.90 1016.32 1015.69 1015.02 1014.30 1013.55 1012.78 1011.99 1011.20 1010.40 1009.61 1008.83 1008.05 1007.29 1006.57
1018.34 1018.66 1018.89 1019.01 1019.04 1019.01 1018.94 1018.87 1018.84 1018.89 1019.03 1019.26 1019.56 1019.91 1020.28 1020.61 1020.86 1021.01 1021.04 1020.94 1020.72 1020.41 1020.02 1019.58 1019.12 1018.65 1018.16 1017.66 1017.13 1016.56 1015.95 1015.27 1014.55 1013.78 1012.97 1012.16 1011.35 1010.55 1009.78 1009.04 1008.31 1007.61 1006.92 1006.25
1018.19 1018.45 1018.61 1018.69 1018.70 1018.66 1018.61 1018.58 1018.60 1018.69 1018.87 1019.13 1019.45 1019.80 1020.15 1020.44 1020.65 1020.75 1020.73 1020.59 1020.34 1020.01 1019.61 1019.18 1018.73 1018.27 1017.79 1017.30 1016.77 1016.19 1015.54 1014.84 1014.07 1013.26 1012.42 1011.59 1010.77 1010.00 1009.26 1008.57 1007.92 1007.29 1006.67 1006.06
1017.81 1018.00 1018.12 1018.18 1018.20 1018.19 1018.18 1018.20 1018.29 1018.44 1018.66 1018.95 1019.29 1019.63 1019.95 1020.21 1020.38 1020.44 1020.38 1020.21 1019.94 1019.60 1019.21 1018.79 1018.35 1017.91 1017.44 1016.95 1016.42 1015.83 1015.17 1014.44 1013.65 1012.82 1011.98 1011.15 1010.36 1009.61 1008.93 1008.31 1007.72 1007.16 1006.61 1006.04
1017.20 1017.35 1017.46 1017.52 1017.56 1017.60 1017.66 1017.76 1017.92 1018.14 1018.41 1018.74 1019.09 1019.43 1019.73 1019.96 1020.10 1020.13 1020.05 1019.86 1019.59 1019.26 1018.88 1018.48 1018.06 1017.63 1017.18 1016.69 1016.15 1015.55 1014.88 1014.15 1013.36 1012.54 1011.72 1010.92 1010.17 1009.48 1008.86 1008.30 1007.78 1007.28 1006.78 1006.25
1016.43 1016.55 1016.65 1016.74 1016.83 1016.95 1017.09 1017.28 1017.52 1017.82 1018.15 1018.51 1018.88 1019.22 1019.51 1019.73 1019.85 1019.86 1019.78 1019.60 1019.35 1019.04 1018.68 1018.31 1017.91 1017.49 1017.05 1016.56 1016.02 1015.42 1014.75 1014.02 1013.25 1012.46 1011.68 1010.94 1010.25 1009.62 1009.08 1008.58 1008.12 1007.67 1007.20 1006.68
1015.56 1015.66 1015.77 1015.90 1016.06 1016.26 1016.50 1016.79 1017.12 1017.50 1017.89 1018.29 1018.68 1019.04 1019.33 1019.54 1019.66 1019.68 1019.62 1019.46 1019.24 1018.97 1018.65 1018.30 1017.93 1017.52 1017.08 1016.60 1016.06 1015.46 1014.80 1014.09 1013.36 1012.62 1011.89 1011.22 1010.60 1010.05 1009.57 1009.14 1008.73 1008.31 1007.87 1007.36
Thickness
5752 5740 5734 5740 5745 5747 5746 5743 5740 5750 5765 5761 5756 5757 5765 5771 5771 5769 5769 5771 5771 5773 5776 5776 5774 5773 5770 5767 5765 5762 5759 5757 5755 5752 5749 5746 5744 5744 5743 5742 5741 5740 5738 5737
5734 5732 5744 5749 5748 5746 5743 5738 5739 5749 5761 5757 5752 5753 5763 5768 5768 5770 5770 5770 5770 5769 5770 5771 5771 5770 5768 5765 5762 5759 5757 5755 5754 5752 5750 5747 5745 5743 5742 5741 5740 5738 5737 5735
5730 5739 5750 5746 5742 5739 5738 5736 5739 5741 5749 5752 5748 5743 5753 5762 5766 5767 5769 5770 5769 5769 5768 5768 5767 5766 5765 5763 5761 5760 5757 5755 5754 5752 5748 5745 5742 5740 5738 5737 5737 5736 5735 5733
5731 5742 5744 5741 5739 5739 5731 5746 5745 5742 5732 5723 5735 5717 5740 5750 5754 5759 5763 5765 5767 5768 5768 5767 5766 5765 5764 5763 5762 5759 5756 5754 5752 5750 5746 5742 5739 5737 5736 5736 5735 5734 5733 5732
5728 5739 5739 5736 5742 5742 5740 5748 5743 5737 5726 5717 5721 5714 5724 5741 5744 5753 5760 5764 5767 5768 5768 5767 5766 5765 5764 5762 5760 5758 5755 5752 5750 5748 5745 5742 5739 5738 5736 5734 5733 5732 5731 5730
5731 5742 5744 5744 5749 5748 5745 5736 5726 5715 5708 5699 5713 5708 5713 5729 5741 5751 5758 5763 5765 5767 5767 5766 5765 5763 5760 5759 5758 5756 5753 5750 5749 5747 5744 5741 5738 5736 5734 5732 5730 5729 5728 5727
5720 5732 5742 5748 5739 5740 5733 5712 5693 5691 5682 5689 5709 5706 5711 5736 5747 5751 5755 5759 5763 5764 5763 5761 5759 5758 5757 5756 5755 5753 5750 5748 5746 5744 5742 5740 5737 5735 5733 5731 5729 5727 5726 5725
5701 5705 5730 5738 5735 5726 5722 5713 5689 5680 5677 5685 5701 5700 5717 5741 5749 5753 5755 5757 5759 5760 5760 5760 5759 5758 5756 5755 5752 5751 5747 5745 5744 5742 5740 5738 5735 5733 5731 5729 5727 5726 5725 5724
5695 5701 5729 5737 5738 5729 5714 5706 5708 5687 5682 5679 5687 5702 5721 5739 5743 5745 5749 5751 5752 5755 5757 5758 5757 5756 5755 5753 5751 5749 5746 5743 5741 5740 5738 5735 5733 5731 5729 5727 5725 5724 5723 5722
5704 5699 5716 5727 5730 5723 5719 5705 5690 5679 5668 5668 5681 5692 5701 5721 5729 5736 5739 5742 5747 5750 5752 5754 5753 5753 5752 5752 5750 5747 5744 5741 5739 5737 5735 5734 5731 5729 5727 5724 5722 5721 5720 5719
5704 5692 5700 5710 5709 5706 5705 5697 5684 5673 5673 5665 5665 5684 5715 5719 5725 5728 5733 5738 5742 5745 5747 5749 5750 5749 5748 5747 5745 5742 5740 5737 5735 5734 5732 5730 5728 5726 5724 5722 5720 5718 5717 5716
5694 5682 5678 5693 5707 5712 5706 5696 5684 5675 5669 5665 5664 5680 5719 5719 5721 5723 5727 5733 5737 5739 5741 5743 5744 5743 5742 5740 5739 5737 5735 5733 5732 5730 5728 5726 5725 5723 5722 5720 5718 5715 5713 5712
5690 5675 5665 5673 5683 5694 5693 5691 5684 5674 5663 5657 5660 5680 5711 5713 5716 5719 5722 5726 5729 5732 5735 5736 5736 5735 5735 5735 5733 5731 5730 5728 5727 5725 5723 5722 5721 5719 5719 5718 5715 5711 5709 5708
5690 5668 5663 5662 5669 5679 5682 5684 5681 5673 5659 5658 5666 5681 5697 5702 5705 5710 5715 5718 5722 5725 5727 5727 5728 5728 5729 5729 5727 5725 5724 5723 5722 5720 5717 5716 5716 5715 5714 5712 5710 5707 5706 5704
5679 5665 5667 5670 5677 5680 5680 5680 5679 5675 5670 5666 5673 5678 5690 5696 5700 5704 5708 5711 5714 5716 5718 5719 5720 5721 5721 5721 5720 5719 5718 5717 5716 5714 5712 5711 5710 5709 5708 5706 5704 5702 5701 5700
5665 5660 5662 5662 5670 5671 5672 5676 5676 5675 5674 5673 5675 5678 5691 5694 5697 5700 5702 5704 5706 5708 5711 5713 5713 5714 5713 5713 5712 5712 5711 5709 5709 5707 5706 5706 5704 5703 5702 5700 5699 5698 5696 5695
5653 5651 5646 5644 5655 5661 5656 5667 5670 5672 5675 5673 5670 5678 5685 5687 5690 5693 5696 5698 5699 5702 5703 5705 5706 5706 5706 5706 5706 5704 5703 5702 5701 5699 5699 5698 5697 5697 5696 5695 5694 5692 5691 5690
5646 5638 5630 5632 5643 5638 5654 5670 5671 5669 5669 5671 5673 5677 5679 5682 5685 5689 5692 5692 5693 5695 5696 5697 5698 5698 5698 5698 5697 5697 5695 5693 5692 5690 5690 5690 5690 5689 5689 5689 5688 5686 5685 5683
5644 5637 5625 5621 5625 5635 5652 5661 5662 5659 5660 5667 5668 5671 5674 5676 5679 5680 5686 5688 5688 5690 5690 5691 5690 5690 5689 5688 5688 5688 5686 5685 5684 5683 5683 5683 5683 5682 5683 5682 5681 5680 5678 5677
5635 5632 5623 5618 5623 5625 5643 5658 5662 5656 5650 5663 5663 5663 5665 5667 5662 5669 5678 5680 5682 5683 5683 5683 5683 5683 5681 5680 5679 5678 5677 5676 5676 5677 5677 5676 5676 5676 5675 5674 5674 5673 5672 5670
5625 5621 5618 5615 5619 5629 5645 5652 5655 5639 5645 5657 5658 5658 5658 5659 5662 5667 5670 5672 5673 5674 5675 5676 5675 5674 5673 5673 5671 5669 5668 5668 5670 5670 5670 5669 5669 5669 5669 5667 5666 5665 5664 5662
5619 5614 5612 5609 5613 5622 5643 5644 5639 5640 5647 5650 5652 5654 5655 5656 5658 5661 5663 5665 5666 5666 5666 5666 5666 5665 5665 5664 5663 5662 5661 5662 5662 5662 5661 5661 5661 5662 5662 5660 5658 5657 5656 5654
5615 5616 5614 5616 5620 5629 5634 5637 5639 5639 5640 5643 5645 5649 5650 5650 5651 5653 5655 5657 5658 5659 5659 5658 5658 5657 5656 5657 5656 5654 5655 5655 5654 5653 5652 5652 5653 5653 5653 5652 5650 5649 5648 5646
5616 5615 5613 5614 5621 5626 5630 5632 5634 5636 5637 5640 5642 5643 5644 5644 5645 5646 5647 5648 5650 5651 5651 5650 5650 5650 5649 5650 5650 5649 5648 5648 5647 5645 5645 5644 5644 5644 5644 5643 5642 5641 5640 5639
5612 5611 5608 5610 5618 5622 5628 5628 5630 5631 5633 5635 5637 5639 5639 5639 5639 5639 5639 5639 5641 5642 5643 5642 5642 5642 5643 5643 5643 5643 5642 5640 5639 5638 5638 5637 5637 5637 5636 5635 5634 5633 5633 5633
5606 5607 5606 5609 5616 5615 5619 5624 5626 5625 5627 5629 5630 5632 5633 5634 5633 5633 5632 5632 5632 5633 5634 5634 5635 5636 5636 5636 5636 5636 5635 5634 5632 5631 5630 5629 5628 5627 5627 5626 5625 5625 5625 5625